Weather in Kemerovo

Russia / Kemerovo Oblast     55°21′17″N   86°05′14″E
temp.,
°C
wind,
m/s
gust,
m/s
humid.,
%
clouds,
%
prec.,
mm/h
press.,
hPa
HPBL,
m
13 may, thu
thu1301:00+12ne114798 0.0 101310
04:00+11s124841 0.0 101310
07:00+12se235461 0.0 1013107
10:00+16sse344159 0.0 1013561
13:00+20ssw233074 0.0 10122261
16:00+20wsw743285 0.0 10122213
19:00+18sse443988 0.0 10111041
22:00+14se2363100 0.8 101268
14 may, fri
fri1401:00+11wnw356899 1.1 101379
04:00+9n388495 0.0 1014199
07:00+10nnw487794 0.0 1016356
10:00+14nnw574719 0.0 10171146
13:00+16nw784394 0.0 10181946
16:00+15nw6833100 0.0 10191656
19:00+14nw5731100 0.0 10201445
22:00+10wnw3439100 0.0 1022114
15 may, sat
sat1501:00+9w2240100 0.0 102333
04:00+10sw4839100 0.0 1023246
07:00+10sw51145100 0.0 1022381
10:00+13wsw61242100 0.1 1022708
13:00+15wsw6113986 0.1 1020695
16:00+16wsw7124692 0.0 1019916
19:00+19wsw71142100 0.0 1017902
22:00+16sw71648100 0.0 1016471
16 may, sun
sun1601:00+12wsw1181100 1.6 101712
04:00+12ssw511765 0.1 1014212
07:00+13s387683 1.8 1014252
10:00+18wsw486497 1.3 1013725
13:00+22w684975 1.3 10121715
16:00+21nnw795597 0.3 10111425
19:00+19n456453 0.8 1011986
22:00+14e228810 0.0 101341
17 may, mon
mon1701:00+15s2488100 0.1 1012123
04:00+13sw4109476 0.1 1011203
07:00+16wsw6157795 0.1 1011511
10:00+21wsw81453100 0.4 1009931
13:00+26wsw10153813 0.5 10072237
16:00+28w9163290 0.0 10053953
19:00+23nnw7114946 0.0 10061240
22:00+15n487721 0.4 1011353